Fairbanks, AK

4:12 AM AKDT on July 28, 2017 (GMT -0800)
Fairbanks International

Weather History for PAFA - December, 2010

Change the Weather History Date:

Thursday, December 2, 2010

  Actual Average Record
Temperature  
Mean Temperature -21 °F -2 °F  
Max Temperature -17 °F 6 °F 41 °F (1992)
Min Temperature -25 °F -11 °F -46 °F (1906)
Degree Days  
Heating Degree Days 86 67  
Month to date heating degree days 175 134  
Since 1 July heating degree days 3718 4265  
Cooling Degree Days 0 0  
Month to date cooling degree days 0 0  
Year to date cooling degree days 66 61  
Moisture  
Dew Point -25 °F    
Average Humidity 75    
Maximum Humidity 79    
Minimum Humidity 70    
Precipitation  
Precipitation 0.00 in 0.02 in 0.39 in (2014)
Month to date precipitation 0.00 0.04  
Year to date precipitation 10.08 10.21  
Snow  
Snow 0.00 in 0.30 in 6.30 in (1992)
Month to date snowfall 0.0 0.7  
Since 1 July snowfall 19.3 26.5  
Snow Depth 10.00 in    
Sea Level Pressure  
Sea Level Pressure 30.24 in    
Wind  
Wind Speed 1 mph (East)    
Max Wind Speed 5 mph    
Max Gust Speed -    
Visibility 10 miles    
Events Snow    
T = Trace of Precipitation, MM = Missing Value Source: NWS Daily Summary

Daily Weather History Graph

Daily Weather History Graph

Search for Another Location

Airport or City:

Trip Planner

Search our weather history database for the weather conditions in past years. The results will help you decide how hot, cold, wet, or windy it might be!

Date:

Astronomy

Dec. 02, 2010 Rise Set
Actual Time 10:22 AM AKST 2:58 PM AKST
Civil Twilight 9:06 AM AKST 4:14 PM AKST
Nautical Twilight 7:58 AM AKST 5:22 PM AKST
Astronomical Twilight 6:58 AM AKST 6:23 PM AKST
Moon 6:23 AM AKST (12/2) 1:20 PM AKST (12/2)
Length of Visible Light 7h 07m
Length of Day
4h 36m
Waning Crescent, 10% of the Moon is Illuminated
Dec 2
Waning Crescent
Dec 5
New
Dec 13
First Quarter
Dec 20
Full
Dec 27
Last Quarter

Hourly Weather History & Observations

Time (AKST) Temp. Windchill Dew Point Humidity Pressure Visibility Wind Dir Wind Speed Gust Speed Precip Events Conditions
12:53 AM -23.1 °F - -29.0 °F 74% 30.10 in 10.0 mi Calm Calm - N/A   Scattered Clouds
1:53 AM -20.9 °F - -27.0 °F 73% 30.10 in 10.0 mi Calm Calm - N/A   Scattered Clouds
2:53 AM -23.1 °F - -29.0 °F 74% 30.10 in 10.0 mi Calm Calm - N/A   Scattered Clouds
3:53 AM -23.1 °F - -27.9 °F 78% 30.10 in 10.0 mi Calm Calm - N/A   Scattered Clouds
4:53 AM -22.0 °F -33.0 °F -29.0 °F 70% 30.10 in 10.0 mi East 3.5 mph - N/A   Scattered Clouds
5:53 AM -20.9 °F - -27.0 °F 73% 30.11 in 10.0 mi Calm Calm - N/A   Scattered Clouds
6:53 AM -20.9 °F - -27.0 °F 73% 30.14 in 10.0 mi Calm Calm - N/A   Scattered Clouds
7:53 AM -22.0 °F - -27.0 °F 77% 30.17 in 10.0 mi Calm Calm - N/A   Scattered Clouds
8:53 AM -23.1 °F - -27.9 °F 78% 30.20 in 10.0 mi Calm Calm - N/A   Scattered Clouds
9:53 AM -22.0 °F -35.6 °F -27.9 °F 74% 30.23 in 10.0 mi NE 4.6 mph - N/A   Scattered Clouds
10:53 AM -20.0 °F - -25.1 °F 78% 30.25 in 10.0 mi Calm Calm - N/A   Scattered Clouds
11:53 AM -20.0 °F -30.7 °F -26.0 °F 74% 30.28 in 10.0 mi South 3.5 mph - N/A   Mostly Cloudy
12:53 PM -18.0 °F - -24.0 °F 74% 30.30 in 10.0 mi Calm Calm - N/A   Mostly Cloudy
1:53 PM -18.0 °F - -23.1 °F 78% 30.32 in 10.0 mi Calm Calm - N/A   Mostly Cloudy
2:53 PM -17.0 °F - -23.1 °F 74% 30.33 in 10.0 mi Calm Calm - N/A   Overcast
3:53 PM -16.1 °F - -22.0 °F 74% 30.35 in 10.0 mi Calm Calm - N/A   Overcast
4:53 PM -15.0 °F - -20.0 °F 78% 30.34 in 10.0 mi Calm Calm - N/A   Overcast
5:53 PM -15.0 °F - -20.9 °F 75% 30.35 in 10.0 mi Calm Calm - N/A   Mostly Cloudy
6:53 PM -18.0 °F - -24.0 °F 74% 30.35 in 10.0 mi Calm Calm - N/A   Mostly Cloudy
7:53 PM -18.9 °F - -24.0 °F 78% 30.34 in 10.0 mi Calm Calm - N/A   Scattered Clouds
8:53 PM -18.9 °F - -25.1 °F 74% 30.32 in 10.0 mi Calm Calm - N/A   Scattered Clouds
9:53 PM -15.0 °F - -20.9 °F 75% 30.30 in 10.0 mi Calm Calm - 0.00 in Snow Light Snow
10:53 PM -11.0 °F -20.4 °F -17.0 °F 75% 30.28 in 10.0 mi ENE 3.5 mph - 0.00 in Snow Light Snow
11:53 PM -9.0 °F -18.2 °F -14.1 °F 79% 30.25 in 10.0 mi NE 3.5 mph - 0.00 in Snow Light Snow